This is the latest recevied weather packets stored in our database for station/object W5COG. If no packets are shown the sender has not sent any weather packets the latest 10 day(s).
| Time | Temp. | Humidity | Pressure | Rain* | Wind** | Luminosity | Snow |
|---|---|---|---|---|---|---|---|
| 1777644327 | 13.33° C | 66% | 1018.9 hPa | 0 mm | - | 416 W/m² | - |
| 1777644026 | 13.33° C | 68% | 1018.9 hPa | 0 mm | - | 373 W/m² | - |
| 1777643727 | 13.33° C | 68% | 1018.8 hPa | 0 mm | - | 362 W/m² | - |
| 1777643427 | 13.33° C | 68% | 1018.7 hPa | 0 mm | - | 316 W/m² | - |
| 1777643127 | 12.78° C | 70% | 1018.7 hPa | 0 mm | - | 357 W/m² | - |
| 1777642226 | 12.78° C | 71% | 1018.7 hPa | 0 mm | - | 195 W/m² | - |
| 1777641927 | 12.78° C | 72% | 1018.9 hPa | 0 mm | - | 248 W/m² | - |
| 1777641626 | 12.22° C | 73% | 1018.9 hPa | 0 mm | - | 271 W/m² | - |
| 1777641326 | 12.22° C | 74% | 1019 hPa | 0 mm | - | 289 W/m² | - |
| 1777641026 | 11.67° C | 75% | 1019 hPa | 0 mm | - | 213 W/m² | - |
| 1777640727 | 11.67° C | 76% | 1019 hPa | 0 mm | - | 157 W/m² | - |
| 1777640426 | 11.67° C | 77% | 1018.9 hPa | 0 mm | - | 124 W/m² | - |
| 1777640127 | 11.11° C | 78% | 1019 hPa | 0 mm | - | 208 W/m² | - |
| 1777639827 | 11.11° C | 78% | 1019.2 hPa | 0 mm | - | 108 W/m² | - |
| 1777639527 | 11.11° C | 78% | 1019.3 hPa | 0 mm | - | 74 W/m² | - |
| 1777639226 | 11.11° C | 79% | 1019.2 hPa | 0 mm | - | 67 W/m² | - |
| 1777638926 | 10.56° C | 82% | 1019 hPa | 0 mm | - | 82 W/m² | - |
| 1777638026 | 10.56° C | 84% | 1018.7 hPa | 0 mm | - | 43 W/m² | - |
| 1777637727 | 10.56° C | 84% | 1018.7 hPa | 0 mm | - | 37 W/m² | - |
| 1777637427 | 10.56° C | 85% | 1018.7 hPa | 0 mm | - | 34 W/m² | - |
| 1777637127 | 10.56° C | 85% | 1018.7 hPa | 0 mm | - | 28 W/m² | - |
| 1777636226 | 10° C | 84% | 1018.3 hPa | 0 mm | - | 15 W/m² | - |
| 1777635927 | 10° C | 85% | 1018.2 hPa | 0 mm | - | 9 W/m² | - |
| 1777635626 | 10° C | 85% | 1018.2 hPa | 0 mm | - | 7 W/m² | - |
| 1777635326 | 10° C | 85% | 1018.2 hPa | 0 mm | - | 5 W/m² | - |
* Rain latest hour (hover to see other rain measurements)
** Current wind speed in m/s (hover to see current wind gust speed)